Location: Cosy Dell
(34.2789°N, 117.4537°W)
Time: 20:20:55
(UTC+00:00)

COSMOS 2406 - Pass Details

Date: 14 July 2020
Orbit: 844 x 863 km, 71.0° (Epoch: 13 August)

Event Time Altitude Azimuth Distance (km) Brightness Sun altitude
Exits shadow 09:19:54 65° 348° (NNW) 944 3.5 -30.7°
Drops below altitude 10° 09:24:54 10° 18° (NNE) 2,505 6.6 -30.3°
Sets 09:27:23 0° 20° (NNE) 3,444 7.6 -30.0°
